NOZ226 EKCH-EDDB

Flight info

Callsign NOZ226
Flight time N/A
Altitude 23000
Route NEXEN T503 MICOS Z990 RAMAR/N0457F350 Z990 IRKIS L619 BUMIL/N0450F370 L619 VIBIS T209 OGBER OGBER1L
Aircraft B38M/M-SDE1FGHILORVWXY/HB1

Departure

Time 2026-04-24 22:59
Airport Copenhagen Kastrup Airport (EKCH)

Arrival

Time N/A
Airport Berlin Brandenburg Airport (EDDB)
Time Latitude Longitude Altitude Speed Heading
2026-04-24 22:35 55.62608 12.64890 26 ft 0 kts 91°
2026-04-24 22:47 55.62608 12.64888 26 ft 2 kts 91°
2026-04-24 22:48 55.62610 12.64845 26 ft 4 kts 102°
2026-04-24 22:48 55.62620 12.64802 30 ft 4 kts 127°
2026-04-24 22:48 55.62638 12.64779 30 ft 4 kts 184°
2026-04-24 22:48 55.62634 12.64777 30 ft 4 kts 192°
2026-04-24 22:49 55.62608 12.64769 28 ft 4 kts 186°
2026-04-24 22:49 55.62586 12.64769 26 ft 2 kts 179°
2026-04-24 22:49 55.62560 12.64770 26 ft 4 kts 179°
2026-04-24 22:49 55.62533 12.64771 27 ft 4 kts 179°
2026-04-24 22:50 55.62506 12.64772 26 ft 3 kts 179°
2026-04-24 22:50 55.62504 12.64772 26 ft 1 kts 179°
2026-04-24 22:53 55.62496 12.64772 28 ft 2 kts 179°
2026-04-24 22:54 55.62471 12.64774 29 ft 5 kts 176°
2026-04-24 22:54 55.62425 12.64779 26 ft 8 kts 177°
2026-04-24 22:54 55.62356 12.64782 26 ft 12 kts 179°
2026-04-24 22:54 55.62269 12.64790 26 ft 14 kts 175°
2026-04-24 22:55 55.62212 12.64771 26 ft 7 kts 209°
2026-04-24 22:55 55.62163 12.64716 27 ft 9 kts 213°
2026-04-24 22:55 55.62097 12.64639 28 ft 14 kts 213°
2026-04-24 22:55 55.62003 12.64530 27 ft 17 kts 213°
2026-04-24 22:56 55.61950 12.64347 26 ft 18 kts 259°
2026-04-24 22:56 55.61918 12.64119 26 ft 19 kts 235°
2026-04-24 22:56 55.61808 12.64076 26 ft 15 kts 176°
2026-04-24 22:56 55.61728 12.64085 27 ft 5 kts 176°
2026-04-24 22:57 55.61725 12.64085 27 ft 0 kts 176°
2026-04-24 22:57 55.61718 12.64086 27 ft 2 kts 176°
2026-04-24 22:58 55.61691 12.64088 28 ft 6 kts 176°
2026-04-24 22:58 55.61643 12.64090 30 ft 7 kts 189°
2026-04-24 22:58 55.61616 12.64057 30 ft 0 kts 222°
2026-04-24 22:58 55.61596 12.64026 29 ft 21 kts 222°
2026-04-24 22:59 55.61272 12.63524 29 ft 99 kts 221°
2026-04-24 22:59 55.60596 12.62473 69 ft 152 kts 221°
2026-04-24 22:59 55.58885 12.59826 1552 ft 160 kts 227°
2026-04-24 23:00 55.58007 12.58473 2202 ft 177 kts 226°
2026-04-24 23:00 55.57019 12.56958 2700 ft 202 kts 224°
2026-04-24 23:00 55.55786 12.55370 3210 ft 235 kts 219°
2026-04-24 23:00 55.54372 12.53642 3941 ft 256 kts 219°
2026-04-24 23:01 55.52858 12.51792 4819 ft 270 kts 219°
2026-04-24 23:01 55.51315 12.49905 6005 ft 270 kts 220°
2026-04-24 23:01 55.49759 12.48001 7065 ft 275 kts 220°
2026-04-24 23:01 55.48195 12.46088 8049 ft 279 kts 220°
2026-04-24 23:02 55.46589 12.44126 9060 ft 283 kts 220°
2026-04-24 23:02 55.44934 12.42105 10046 ft 288 kts 220°
2026-04-24 23:02 55.43272 12.40073 10686 ft 304 kts 220°
2026-04-24 23:02 55.41434 12.37973 11122 ft 330 kts 211°
2026-04-24 23:03 55.39105 12.37050 11598 ft 360 kts 184°
2026-04-24 23:03 55.36542 12.37163 12139 ft 374 kts 185°
2026-04-24 23:03 55.33906 12.37117 12794 ft 383 kts 185°
2026-04-24 23:03 55.31217 12.37075 13611 ft 388 kts 185°
2026-04-24 23:04 55.28496 12.37033 14294 ft 394 kts 185°
2026-04-24 23:04 55.25745 12.36992 15022 ft 397 kts 185°
2026-04-24 23:04 55.22974 12.36951 15727 ft 401 kts 185°
2026-04-24 23:04 55.21119 12.36924 16192 ft 403 kts 185°
2026-04-24 23:05 55.18306 12.36882 16881 ft 406 kts 186°
2026-04-24 23:05 55.15471 12.36841 17552 ft 410 kts 185°
2026-04-24 23:05 55.12601 12.36799 18222 ft 414 kts 185°
2026-04-24 23:05 55.09724 12.36757 18789 ft 417 kts 185°
2026-04-24 23:06 55.06808 12.36714 19369 ft 420 kts 185°
2026-04-24 23:06 55.03878 12.36671 19960 ft 423 kts 185°
2026-04-24 23:06 55.00930 12.36628 20531 ft 426 kts 185°
2026-04-24 23:06 54.97957 12.36585 21100 ft 428 kts 185°
2026-04-24 23:07 54.94963 12.36542 21659 ft 432 kts 185°
2026-04-24 23:07 54.91954 12.36498 22210 ft 435 kts 185°
2026-04-24 23:07 54.88958 12.36455 22705 ft 438 kts 185°
2026-04-24 23:07 54.85891 12.36409 22943 ft 444 kts 185°
2026-04-24 23:08 54.82768 12.36358 22951 ft 455 kts 185°
2026-04-24 23:08 54.79571 12.36306 22952 ft 464 kts 185°
2026-04-24 23:08 54.76309 12.36255 22959 ft 472 kts 185°
2026-04-24 23:08 54.73015 12.36204 22979 ft 475 kts 185°
2026-04-24 23:09 54.69700 12.36157 22986 ft 475 kts 185°
2026-04-24 23:09 54.66403 12.36111 22989 ft 476 kts 185°
2026-04-24 23:09 54.63098 12.36065 22975 ft 475 kts 184°
2026-04-24 23:09 54.59797 12.36019 22995 ft 473 kts 184°
2026-04-24 23:10 54.56509 12.35974 22996 ft 472 kts 184°
2026-04-24 23:10 54.53219 12.36100 22981 ft 476 kts 176°
2026-04-24 23:10 54.50017 12.37604 22993 ft 483 kts 159°
2026-04-24 23:10 54.47078 12.40504 23021 ft 488 kts 149°
2026-04-24 23:11 54.44215 12.43661 22991 ft 489 kts 150°
2026-04-24 23:11 54.41336 12.46784 23007 ft 490 kts 150°
2026-04-24 23:11 54.38449 12.49910 23004 ft 490 kts 150°
2026-04-24 23:11 54.35561 12.53032 22977 ft 490 kts 150°
2026-04-24 23:12 54.32686 12.56132 23014 ft 487 kts 150°
2026-04-24 23:12 54.29819 12.59222 23009 ft 486 kts 150°
2026-04-24 23:12 54.26961 12.62297 23016 ft 486 kts 150°
2026-04-24 23:12 54.24097 12.65373 23003 ft 486 kts 150°
2026-04-24 23:13 54.21235 12.68442 23054 ft 485 kts 150°
2026-04-24 23:13 54.18366 12.71511 23256 ft 487 kts 150°
2026-04-24 23:13 54.15528 12.74544 23448 ft 489 kts 150°
2026-04-24 23:13 54.12654 12.77611 23130 ft 485 kts 150°
2026-04-24 23:14 54.09794 12.80662 23011 ft 487 kts 150°
2026-04-24 23:14 54.06914 12.83725 23018 ft 488 kts 150°
2026-04-24 23:14 54.04034 12.86778 23002 ft 488 kts 150°
2026-04-24 23:14 54.01154 12.89829 23017 ft 487 kts 150°
2026-04-24 23:15 53.98274 12.92874 23012 ft 487 kts 150°
2026-04-24 23:15 53.95394 12.95917 23014 ft 487 kts 150°
2026-04-24 23:15 53.92518 12.98949 23021 ft 487 kts 150°
2026-04-24 23:15 53.89631 13.01989 23025 ft 487 kts 150°
2026-04-24 23:16 53.86754 13.05013 23022 ft 487 kts 150°
2026-04-24 23:16 53.83871 13.08038 23017 ft 487 kts 150°
2026-04-24 23:16 53.80993 13.11054 23026 ft 487 kts 150°
2026-04-24 23:16 53.78109 13.14070 23025 ft 487 kts 150°
2026-04-24 23:17 53.75220 13.17087 23016 ft 489 kts 151°
2026-04-24 23:17 53.72320 13.20110 23019 ft 490 kts 151°
2026-04-24 23:17 53.69416 13.23132 23026 ft 490 kts 151°
2026-04-24 23:17 53.66516 13.26145 23029 ft 490 kts 151°
2026-04-24 23:18 53.63610 13.29160 23028 ft 490 kts 151°
2026-04-24 23:18 53.60728 13.32150 23018 ft 477 kts 151°
2026-04-24 23:18 53.57956 13.35027 22985 ft 459 kts 151°
2026-04-24 23:18 53.55285 13.37795 22911 ft 444 kts 152°
2026-04-24 23:19 53.52679 13.40487 22801 ft 438 kts 152°
2026-04-24 23:19 53.50087 13.43157 22691 ft 436 kts 152°
2026-04-24 23:19 53.47504 13.45810 22559 ft 435 kts 152°
2026-04-24 23:19 53.44923 13.48459 22447 ft 434 kts 152°
2026-04-24 23:20 53.42346 13.51100 22350 ft 434 kts 152°
2026-04-24 23:20 53.39802 13.53703 22290 ft 434 kts 152°
2026-04-24 23:20 53.37182 13.56380 22189 ft 435 kts 152°
2026-04-24 23:20 53.34644 13.58970 21872 ft 436 kts 152°
2026-04-24 23:21 53.32004 13.61653 21319 ft 451 kts 152°
2026-04-24 23:21 53.29290 13.64408 20677 ft 461 kts 152°
2026-04-24 23:21 53.26540 13.67197 20073 ft 463 kts 151°
2026-04-24 23:21 53.23786 13.69990 19446 ft 461 kts 151°
2026-04-24 23:22 53.21046 13.72764 18805 ft 459 kts 151°
2026-04-24 23:22 53.18320 13.75520 18125 ft 458 kts 151°
2026-04-24 23:22 53.15637 13.78228 17467 ft 455 kts 151°
2026-04-24 23:22 53.12944 13.80944 16833 ft 451 kts 151°
2026-04-24 23:23 53.10267 13.83640 16231 ft 447 kts 150°
2026-04-24 23:23 53.07654 13.86270 15673 ft 431 kts 150°
2026-04-24 23:23 53.05124 13.88813 15094 ft 418 kts 150°
2026-04-24 23:23 53.02665 13.91281 14515 ft 407 kts 150°
2026-04-24 23:24 53.00276 13.93674 13958 ft 397 kts 150°
2026-04-24 23:24 52.97936 13.96015 13343 ft 388 kts 150°
2026-04-24 23:24 52.95644 13.98305 12716 ft 380 kts 150°
2026-04-24 23:24 52.93400 14.00542 12110 ft 374 kts 150°
2026-04-24 23:25 52.91187 14.02746 11499 ft 368 kts 150°
2026-04-24 23:25 52.89015 14.04908 10975 ft 360 kts 150°
2026-04-24 23:25 52.86925 14.06984 10563 ft 350 kts 150°
2026-04-24 23:25 52.84862 14.09032 10151 ft 340 kts 150°
2026-04-24 23:26 52.82856 14.11021 9722 ft 332 kts 150°
2026-04-24 23:26 52.80896 14.12962 9254 ft 325 kts 150°
2026-04-24 23:26 52.78988 14.14850 8813 ft 318 kts 150°
2026-04-24 23:26 52.77106 14.16709 8366 ft 312 kts 150°
2026-04-24 23:27 52.75263 14.18528 7930 ft 307 kts 150°
2026-04-24 23:27 52.73445 14.20320 7507 ft 302 kts 150°
2026-04-24 23:27 52.71656 14.22082 7080 ft 297 kts 150°
2026-04-24 23:27 52.69892 14.23818 6656 ft 292 kts 150°
2026-04-24 23:28 52.68157 14.25523 6231 ft 289 kts 150°
2026-04-24 23:28 52.66441 14.27209 5795 ft 286 kts 150°
2026-04-24 23:28 52.64760 14.28854 5555 ft 273 kts 152°
2026-04-24 23:28 52.63070 14.30089 5353 ft 260 kts 162°
2026-04-24 23:29 52.61388 14.31091 5167 ft 254 kts 162°
2026-04-24 23:29 52.59731 14.32090 5011 ft 254 kts 161°
2026-04-24 23:29 52.58033 14.32670 4728 ft 247 kts 186°
2026-04-24 23:29 52.56431 14.31904 4392 ft 237 kts 214°
2026-04-24 23:30 52.55220 14.30136 4102 ft 232 kts 233°
2026-04-24 23:30 52.54198 14.28089 3828 ft 231 kts 234°
2026-04-24 23:30 52.53220 14.26014 3488 ft 226 kts 239°
2026-04-24 23:30 52.52566 14.23753 3237 ft 220 kts 250°
2026-04-24 23:31 52.51998 14.21394 3011 ft 217 kts 251°
2026-04-24 23:31 52.51473 14.19174 2960 ft 210 kts 251°
2026-04-24 23:31 52.50963 14.17011 2961 ft 198 kts 252°
2026-04-24 23:31 52.50497 14.14785 3001 ft 215 kts 253°
2026-04-24 23:32 52.50000 14.12442 2962 ft 222 kts 252°
2026-04-24 23:32 52.49459 14.10040 2956 ft 226 kts 251°
2026-04-24 23:32 52.48900 14.07625 2966 ft 226 kts 251°
2026-04-24 23:32 52.48335 14.05209 2977 ft 226 kts 251°
2026-04-24 23:33 52.47771 14.02802 2978 ft 226 kts 251°
2026-04-24 23:33 52.47395 14.01207 2976 ft 226 kts 251°
2026-04-24 23:33 52.46637 13.97990 2967 ft 226 kts 251°
2026-04-24 23:33 52.46070 13.95589 2972 ft 225 kts 251°
2026-04-24 23:34 52.45505 13.93190 2992 ft 226 kts 251°
2026-04-24 23:34 52.44940 13.90798 2984 ft 221 kts 251°
2026-04-24 23:34 52.44401 13.88518 2940 ft 207 kts 251°
2026-04-24 23:34 52.43892 13.86358 3012 ft 201 kts 251°
2026-04-24 23:35 52.43386 13.84214 3063 ft 202 kts 251°
2026-04-24 23:35 52.42881 13.82073 3020 ft 201 kts 251°
2026-04-24 23:35 52.42376 13.79934 2992 ft 201 kts 252°
2026-04-24 23:35 52.41872 13.77805 2987 ft 200 kts 251°
2026-04-24 23:36 52.41371 13.75679 2993 ft 200 kts 252°
2026-04-24 23:36 52.40873 13.73571 2863 ft 201 kts 251°
2026-04-24 23:36 52.40372 13.71457 2606 ft 195 kts 252°
2026-04-24 23:36 52.39896 13.69449 2394 ft 181 kts 252°
2026-04-24 23:37 52.39465 13.67621 2170 ft 163 kts 252°
2026-04-24 23:37 52.39083 13.66006 1947 ft 142 kts 252°
2026-04-24 23:37 52.38397 13.63104 1591 ft 136 kts 252°
2026-04-24 23:38 52.38060 13.61676 1410 ft 135 kts 252°
2026-04-24 23:38 52.37724 13.60256 1213 ft 130 kts 251°
2026-04-24 23:38 52.37379 13.58851 1005 ft 136 kts 251°
2026-04-24 23:38 52.37041 13.57397 819 ft 138 kts 251°
2026-04-24 23:39 52.36695 13.55935 646 ft 138 kts 251°
2026-04-24 23:39 52.36346 13.54450 470 ft 141 kts 251°
2026-04-24 23:39 52.36110 13.53457 352 ft 142 kts 250°